Year,Month,Day,Hour,Minute,Value (Times are PST for windgust in km/hr)
2012,12,15,00,00,3.20
2012,12,15,00,01,4.80
2012,12,15,00,02,3.20
2012,12,15,00,03,3.20
2012,12,15,00,04,6.40
2012,12,15,00,05,3.20
2012,12,15,00,06,4.80
2012,12,15,00,07,4.80
2012,12,15,00,08,1.60
2012,12,15,00,09,3.20
2012,12,15,00,10,3.20
2012,12,15,00,11,3.20
2012,12,15,00,12,3.20
2012,12,15,00,13,1.60
2012,12,15,00,14,3.20
2012,12,15,00,15,3.20
2012,12,15,00,16,3.20
2012,12,15,00,17,3.20
2012,12,15,00,18,3.20
2012,12,15,00,19,1.60
2012,12,15,00,20,1.60
2012,12,15,00,21,1.60
2012,12,15,00,22,1.60
2012,12,15,00,27,3.20
2012,12,15,00,28,4.80
2012,12,15,00,29,3.20
2012,12,15,00,30,3.20
2012,12,15,00,31,3.20
2012,12,15,00,32,3.20
2012,12,15,00,33,1.60
2012,12,15,00,34,3.20
2012,12,15,00,35,1.60
2012,12,15,00,38,3.20
2012,12,15,00,39,1.60
2012,12,15,00,40,4.80
2012,12,15,00,41,4.80
2012,12,15,00,42,3.20
2012,12,15,00,43,4.80
2012,12,15,00,44,4.80
2012,12,15,00,45,4.80
2012,12,15,00,46,4.80
2012,12,15,00,47,3.20
2012,12,15,00,48,6.40
2012,12,15,00,49,4.80
2012,12,15,00,50,4.80
2012,12,15,00,51,3.20
2012,12,15,00,52,6.40
2012,12,15,00,53,4.80
2012,12,15,00,54,4.80
2012,12,15,00,55,3.20
2012,12,15,00,56,4.80
2012,12,15,00,57,6.40
2012,12,15,00,58,4.80
2012,12,15,00,59,6.40
2012,12,15,01,00,4.80
2012,12,15,01,01,4.80
2012,12,15,01,02,3.20
2012,12,15,01,03,3.20
2012,12,15,01,04,6.40
2012,12,15,01,05,8.10
2012,12,15,01,06,9.60
2012,12,15,01,07,8.10
2012,12,15,01,08,9.60
2012,12,15,01,09,8.10
2012,12,15,01,10,8.10
2012,12,15,01,11,11.30
2012,12,15,01,12,11.30
2012,12,15,01,13,9.60
2012,12,15,01,14,12.90
2012,12,15,01,15,8.10
2012,12,15,01,16,8.10
2012,12,15,01,17,9.60
2012,12,15,01,18,12.90
2012,12,15,01,19,9.60
2012,12,15,01,20,8.10
2012,12,15,01,21,12.90
2012,12,15,01,22,14.50
2012,12,15,01,23,12.90
2012,12,15,01,24,11.30
2012,12,15,01,25,12.90
2012,12,15,01,26,8.10
2012,12,15,01,27,6.40
2012,12,15,01,28,14.50
2012,12,15,01,29,14.50
2012,12,15,01,30,16.10
2012,12,15,01,31,14.50
2012,12,15,01,32,14.50
2012,12,15,01,33,16.10
2012,12,15,01,34,16.10
2012,12,15,01,35,12.90
2012,12,15,01,36,12.90
2012,12,15,01,37,16.10
2012,12,15,01,38,14.50
2012,12,15,01,39,11.30
2012,12,15,01,40,14.50
2012,12,15,01,41,17.70
2012,12,15,01,42,11.30
2012,12,15,01,43,8.10
2012,12,15,01,44,9.60
2012,12,15,01,45,11.30
2012,12,15,01,46,14.50
2012,12,15,01,47,14.50
2012,12,15,01,48,12.90
2012,12,15,01,49,11.30
2012,12,15,01,50,11.30
2012,12,15,01,51,11.30
2012,12,15,01,52,11.30
2012,12,15,01,53,12.90
2012,12,15,01,54,12.90
2012,12,15,01,55,14.50
2012,12,15,01,56,11.30
2012,12,15,01,57,9.60
2012,12,15,01,58,12.90
2012,12,15,01,59,9.60
2012,12,15,02,00,9.60
2012,12,15,02,01,11.30
2012,12,15,02,02,9.60
2012,12,15,02,03,17.70
2012,12,15,02,04,14.50
2012,12,15,02,05,19.30
2012,12,15,02,06,12.90
2012,12,15,02,07,16.10
2012,12,15,02,08,11.30
2012,12,15,02,09,14.50
2012,12,15,02,10,16.10
2012,12,15,02,11,16.10
2012,12,15,02,12,16.10
2012,12,15,02,13,12.90
2012,12,15,02,14,11.30
2012,12,15,02,15,16.10
2012,12,15,02,16,17.70
2012,12,15,02,17,19.30
2012,12,15,02,18,16.10
2012,12,15,02,19,16.10
2012,12,15,02,20,14.50
2012,12,15,02,21,17.70
2012,12,15,02,22,16.10
2012,12,15,02,23,14.50
2012,12,15,02,24,19.30
2012,12,15,02,25,12.90
2012,12,15,02,26,12.90
2012,12,15,02,27,9.60
2012,12,15,02,28,8.10
2012,12,15,02,29,12.90
2012,12,15,02,30,16.10
2012,12,15,02,31,14.50
2012,12,15,02,32,20.90
2012,12,15,02,33,14.50
2012,12,15,02,34,17.70
2012,12,15,02,35,12.90
2012,12,15,02,36,12.90
2012,12,15,02,37,9.60
2012,12,15,02,38,11.30
2012,12,15,02,39,14.50
2012,12,15,02,40,16.10
2012,12,15,02,41,20.90
2012,12,15,02,42,14.50
2012,12,15,02,43,14.50
2012,12,15,02,44,19.30
2012,12,15,02,45,16.10
2012,12,15,02,46,17.70
2012,12,15,02,47,17.70
2012,12,15,02,48,19.30
2012,12,15,02,49,16.10
2012,12,15,02,50,12.90
2012,12,15,02,51,14.50
2012,12,15,02,52,14.50
2012,12,15,02,53,17.70
2012,12,15,02,54,17.70
2012,12,15,02,55,12.90
2012,12,15,02,56,12.90
2012,12,15,02,57,12.90
2012,12,15,02,58,11.30
2012,12,15,02,59,11.30
2012,12,15,03,00,14.50
2012,12,15,03,01,12.90
2012,12,15,03,02,19.30
2012,12,15,03,03,14.50
2012,12,15,03,04,14.50
2012,12,15,03,05,12.90
2012,12,15,03,06,17.70
2012,12,15,03,07,17.70
2012,12,15,03,08,16.10
2012,12,15,03,09,17.70
2012,12,15,03,10,14.50
2012,12,15,03,11,12.90
2012,12,15,03,12,16.10
2012,12,15,03,13,19.30
2012,12,15,03,14,12.90
2012,12,15,03,15,14.50
2012,12,15,03,16,16.10
2012,12,15,03,17,14.50
2012,12,15,03,18,14.50
2012,12,15,03,19,12.90
2012,12,15,03,20,16.10
2012,12,15,03,21,17.70
2012,12,15,03,22,19.30
2012,12,15,03,23,19.30
2012,12,15,03,24,16.10
2012,12,15,03,25,17.70
2012,12,15,03,26,12.90
2012,12,15,03,27,12.90
2012,12,15,03,28,11.30
2012,12,15,03,29,16.10
2012,12,15,03,30,17.70
2012,12,15,03,31,14.50
2012,12,15,03,32,14.50
2012,12,15,03,33,12.90
2012,12,15,03,34,12.90
2012,12,15,03,35,16.10
2012,12,15,03,36,22.50
2012,12,15,03,37,16.10
2012,12,15,03,38,19.30
2012,12,15,03,39,19.30
2012,12,15,03,40,14.50
2012,12,15,03,41,20.90
2012,12,15,03,42,16.10
2012,12,15,03,43,16.10
2012,12,15,03,44,14.50
2012,12,15,03,45,17.70
2012,12,15,03,46,14.50
2012,12,15,03,47,17.70
2012,12,15,03,48,16.10
2012,12,15,03,49,19.30
2012,12,15,03,50,17.70
2012,12,15,03,51,14.50
2012,12,15,03,52,17.70
2012,12,15,03,53,14.50
2012,12,15,03,54,17.70
2012,12,15,03,55,20.90
2012,12,15,03,56,24.20
2012,12,15,03,57,17.70
2012,12,15,03,58,19.30
2012,12,15,03,59,17.70
2012,12,15,04,00,19.30
2012,12,15,04,01,19.30
2012,12,15,04,02,22.50
2012,12,15,04,03,11.30
2012,12,15,04,04,16.10
2012,12,15,04,05,9.60
2012,12,15,04,06,12.90
2012,12,15,04,07,19.30
2012,12,15,04,08,17.70
2012,12,15,04,09,16.10
2012,12,15,04,10,17.70
2012,12,15,04,11,12.90
2012,12,15,04,12,20.90
2012,12,15,04,13,17.70
2012,12,15,04,14,16.10
2012,12,15,04,15,12.90
2012,12,15,04,16,16.10
2012,12,15,04,17,12.90
2012,12,15,04,18,14.50
2012,12,15,04,19,24.20
2012,12,15,04,20,11.30
2012,12,15,04,21,11.30
2012,12,15,04,22,20.90
2012,12,15,04,23,19.30
2012,12,15,04,24,20.90
2012,12,15,04,25,17.70
2012,12,15,04,26,17.70
2012,12,15,04,27,19.30
2012,12,15,04,28,17.70
2012,12,15,04,29,24.20
2012,12,15,04,30,20.90
2012,12,15,04,31,17.70
2012,12,15,04,32,14.50
2012,12,15,04,33,16.10
2012,12,15,04,34,16.10
2012,12,15,04,35,25.70
2012,12,15,04,36,20.90
2012,12,15,04,37,22.50
2012,12,15,04,38,24.20
2012,12,15,04,39,20.90
2012,12,15,04,40,16.10
2012,12,15,04,41,19.30
2012,12,15,04,42,19.30
2012,12,15,04,43,20.90
2012,12,15,04,44,19.30
2012,12,15,04,45,14.50
2012,12,15,04,46,22.50
2012,12,15,04,47,22.50
2012,12,15,04,48,22.50
2012,12,15,04,49,22.50
2012,12,15,04,50,17.70
2012,12,15,04,51,19.30
2012,12,15,04,52,19.30
2012,12,15,04,53,16.10
2012,12,15,04,54,19.30
2012,12,15,04,55,16.10
2012,12,15,04,56,14.50
2012,12,15,04,57,14.50
2012,12,15,04,58,16.10
2012,12,15,04,59,17.70
2012,12,15,05,00,16.10
2012,12,15,05,01,19.30
2012,12,15,05,02,14.50
2012,12,15,05,03,12.90
2012,12,15,05,04,16.10
2012,12,15,05,05,20.90
2012,12,15,05,06,17.70
2012,12,15,05,07,17.70
2012,12,15,05,08,14.50
2012,12,15,05,09,14.50
2012,12,15,05,10,12.90
2012,12,15,05,11,17.70
2012,12,15,05,12,14.50
2012,12,15,05,13,20.90
2012,12,15,05,14,20.90
2012,12,15,05,15,17.70
2012,12,15,05,16,12.90
2012,12,15,05,17,17.70
2012,12,15,05,18,14.50
2012,12,15,05,19,16.10
2012,12,15,05,20,24.20
2012,12,15,05,21,20.90
2012,12,15,05,22,19.30
2012,12,15,05,23,14.50
2012,12,15,05,24,12.90
2012,12,15,05,25,17.70
2012,12,15,05,26,17.70
2012,12,15,05,27,16.10
2012,12,15,05,28,24.20
2012,12,15,05,29,14.50
2012,12,15,05,30,17.70
2012,12,15,05,31,16.10
2012,12,15,05,32,16.10
2012,12,15,05,33,20.90
2012,12,15,05,34,12.90
2012,12,15,05,35,14.50
2012,12,15,05,36,20.90
2012,12,15,05,37,19.30
2012,12,15,05,38,17.70
2012,12,15,05,39,19.30
2012,12,15,05,40,17.70
2012,12,15,05,41,20.90
2012,12,15,05,42,17.70
2012,12,15,05,43,14.50
2012,12,15,05,44,20.90
2012,12,15,05,45,22.50
2012,12,15,05,46,20.90
2012,12,15,05,47,17.70
2012,12,15,05,48,17.70
2012,12,15,05,49,14.50
2012,12,15,05,50,16.10
2012,12,15,05,51,20.90
2012,12,15,05,52,16.10
2012,12,15,05,53,16.10
2012,12,15,05,54,17.70
2012,12,15,05,55,20.90
2012,12,15,05,56,19.30
2012,12,15,05,57,19.30
2012,12,15,05,58,16.10
2012,12,15,05,59,14.50
2012,12,15,06,00,20.90
2012,12,15,06,01,20.90
2012,12,15,06,02,17.70
2012,12,15,06,03,19.30
2012,12,15,06,04,19.30
2012,12,15,06,05,17.70
2012,12,15,06,06,14.50
2012,12,15,06,07,20.90
2012,12,15,06,08,24.20
2012,12,15,06,09,16.10
2012,12,15,06,10,17.70
2012,12,15,06,11,14.50
2012,12,15,06,12,22.50
2012,12,15,06,13,16.10
2012,12,15,06,14,20.90
2012,12,15,06,15,22.50
2012,12,15,06,16,19.30
2012,12,15,06,17,20.90
2012,12,15,06,18,19.30
2012,12,15,06,19,20.90
2012,12,15,06,20,19.30
2012,12,15,06,21,20.90
2012,12,15,06,22,20.90
2012,12,15,06,23,19.30
2012,12,15,06,24,20.90
2012,12,15,06,25,19.30
2012,12,15,06,26,17.70
2012,12,15,06,27,16.10
2012,12,15,06,28,19.30
2012,12,15,06,29,20.90
2012,12,15,06,30,22.50
2012,12,15,06,31,27.40
2012,12,15,06,32,19.30
2012,12,15,06,33,22.50
2012,12,15,06,34,16.10
2012,12,15,06,35,19.30
2012,12,15,06,36,19.30
2012,12,15,06,37,19.30
2012,12,15,06,38,17.70
2012,12,15,06,39,22.50
2012,12,15,06,40,20.90
2012,12,15,06,41,19.30
2012,12,15,06,42,17.70
2012,12,15,06,43,19.30
2012,12,15,06,44,20.90
2012,12,15,06,45,20.90
2012,12,15,06,46,19.30
2012,12,15,06,47,17.70
2012,12,15,06,48,17.70
2012,12,15,06,49,20.90
2012,12,15,06,50,24.20
2012,12,15,06,51,17.70
2012,12,15,06,52,17.70
2012,12,15,06,53,17.70
2012,12,15,06,54,17.70
2012,12,15,06,55,16.10
2012,12,15,06,56,19.30
2012,12,15,06,57,16.10
2012,12,15,06,58,20.90
2012,12,15,06,59,20.90
2012,12,15,07,00,24.20
2012,12,15,07,01,17.70
2012,12,15,07,02,19.30
2012,12,15,07,03,17.70
2012,12,15,07,04,19.30
2012,12,15,07,05,19.30
2012,12,15,07,06,22.50
2012,12,15,07,07,17.70
2012,12,15,07,08,20.90
2012,12,15,07,09,17.70
2012,12,15,07,10,20.90
2012,12,15,07,11,17.70
2012,12,15,07,12,20.90
2012,12,15,07,13,16.10
2012,12,15,07,14,14.50
2012,12,15,07,15,14.50
2012,12,15,07,16,22.50
2012,12,15,07,17,19.30
2012,12,15,07,18,14.50
2012,12,15,07,19,27.40
2012,12,15,07,20,17.70
2012,12,15,07,21,19.30
2012,12,15,07,22,17.70
2012,12,15,07,23,22.50
2012,12,15,07,24,19.30
2012,12,15,07,25,17.70
2012,12,15,07,26,19.30
2012,12,15,07,27,20.90
2012,12,15,07,28,20.90
2012,12,15,07,29,17.70
2012,12,15,07,30,20.90
2012,12,15,07,31,25.70
2012,12,15,07,32,22.50
2012,12,15,07,33,19.30
2012,12,15,07,34,24.20
2012,12,15,07,35,24.20
2012,12,15,07,36,17.70
2012,12,15,07,37,16.10
2012,12,15,07,38,20.90
2012,12,15,07,39,20.90
2012,12,15,07,40,25.70
2012,12,15,07,41,20.90
2012,12,15,07,42,20.90
2012,12,15,07,43,27.40
2012,12,15,07,44,24.20
2012,12,15,07,45,22.50
2012,12,15,07,46,20.90
2012,12,15,07,47,24.20
2012,12,15,07,48,17.70
2012,12,15,07,49,19.30
2012,12,15,07,50,20.90
2012,12,15,07,51,17.70
2012,12,15,07,52,22.50
2012,12,15,07,53,16.10
2012,12,15,07,54,20.90
2012,12,15,07,55,19.30
2012,12,15,07,56,22.50
2012,12,15,07,57,22.50
2012,12,15,07,58,27.40
2012,12,15,07,59,24.20
2012,12,15,08,00,20.90
2012,12,15,08,01,19.30
2012,12,15,08,02,20.90
2012,12,15,08,03,12.90
2012,12,15,08,04,24.20
2012,12,15,08,05,22.50
2012,12,15,08,06,19.30
2012,12,15,08,07,16.10
2012,12,15,08,08,19.30
2012,12,15,08,09,19.30
2012,12,15,08,10,16.10
2012,12,15,08,11,17.70
2012,12,15,08,12,20.90
2012,12,15,08,13,17.70
2012,12,15,08,14,22.50
2012,12,15,08,15,20.90
2012,12,15,08,16,19.30
2012,12,15,08,17,24.20
2012,12,15,08,18,17.70
2012,12,15,08,19,19.30
2012,12,15,08,20,19.30
2012,12,15,08,21,20.90
2012,12,15,08,22,17.70
2012,12,15,08,23,22.50
2012,12,15,08,24,17.70
2012,12,15,08,25,19.30
2012,12,15,08,26,19.30
2012,12,15,08,27,20.90
2012,12,15,08,28,24.20
2012,12,15,08,29,19.30
2012,12,15,08,30,25.70
2012,12,15,08,31,24.20
2012,12,15,08,32,20.90
2012,12,15,08,33,20.90
2012,12,15,08,34,19.30
2012,12,15,08,35,20.90
2012,12,15,08,36,25.70
2012,12,15,08,37,25.70
2012,12,15,08,38,24.20
2012,12,15,08,39,24.20
2012,12,15,08,40,19.30
2012,12,15,08,41,24.20
2012,12,15,08,42,20.90
2012,12,15,08,43,20.90
2012,12,15,08,44,25.70
2012,12,15,08,45,20.90
2012,12,15,08,46,19.30
2012,12,15,08,47,25.70
2012,12,15,08,48,27.40
2012,12,15,08,49,24.20
2012,12,15,08,50,22.50
2012,12,15,08,51,24.20
2012,12,15,08,52,25.70
2012,12,15,08,53,24.20
2012,12,15,08,54,17.70
2012,12,15,08,55,17.70
2012,12,15,08,56,24.20
2012,12,15,08,57,16.10
2012,12,15,08,58,14.50
2012,12,15,08,59,24.20
2012,12,15,09,00,19.30
2012,12,15,09,01,20.90
2012,12,15,09,02,14.50
2012,12,15,09,03,20.90
2012,12,15,09,04,25.70
2012,12,15,09,05,25.70
2012,12,15,09,06,16.10
2012,12,15,09,07,16.10
2012,12,15,09,08,14.50
2012,12,15,09,09,17.70
2012,12,15,09,10,17.70
2012,12,15,09,11,25.70
2012,12,15,09,12,20.90
2012,12,15,09,13,17.70
2012,12,15,09,14,22.50
2012,12,15,09,15,20.90
2012,12,15,09,16,19.30
2012,12,15,09,17,17.70
2012,12,15,09,18,17.70
2012,12,15,09,19,17.70
2012,12,15,09,20,19.30
2012,12,15,09,21,17.70
2012,12,15,09,22,19.30
2012,12,15,09,23,16.10
2012,12,15,09,24,24.20
2012,12,15,09,25,24.20
2012,12,15,09,26,14.50
2012,12,15,09,27,19.30
2012,12,15,09,28,22.50
2012,12,15,09,29,22.50
2012,12,15,09,30,22.50
2012,12,15,09,31,19.30
2012,12,15,09,32,19.30
2012,12,15,09,33,20.90
2012,12,15,09,34,17.70
2012,12,15,09,35,20.90
2012,12,15,09,36,20.90
2012,12,15,09,37,17.70
2012,12,15,09,38,19.30
2012,12,15,09,39,19.30
2012,12,15,09,40,17.70
2012,12,15,09,41,20.90
2012,12,15,09,42,19.30
2012,12,15,09,43,22.50
2012,12,15,09,44,20.90
2012,12,15,09,45,17.70
2012,12,15,09,46,19.30
2012,12,15,09,47,20.90
2012,12,15,09,48,19.30
2012,12,15,09,49,19.30
2012,12,15,09,50,17.70
2012,12,15,09,51,17.70
2012,12,15,09,52,20.90
2012,12,15,09,53,14.50
2012,12,15,09,54,19.30
2012,12,15,09,55,29.00
2012,12,15,09,56,17.70
2012,12,15,09,57,17.70
2012,12,15,09,58,16.10
2012,12,15,09,59,20.90
2012,12,15,10,00,16.10
2012,12,15,10,01,19.30
2012,12,15,10,02,20.90
2012,12,15,10,03,16.10
2012,12,15,10,04,19.30
2012,12,15,10,05,14.50
2012,12,15,10,06,20.90
2012,12,15,10,07,14.50
2012,12,15,10,08,16.10
2012,12,15,10,09,19.30
2012,12,15,10,10,19.30
2012,12,15,10,11,19.30
2012,12,15,10,12,19.30
2012,12,15,10,13,19.30
2012,12,15,10,14,19.30
2012,12,15,10,15,17.70
2012,12,15,10,16,17.70
2012,12,15,10,17,16.10
2012,12,15,10,18,14.50
2012,12,15,10,19,14.50
2012,12,15,10,20,16.10
2012,12,15,10,21,22.50
2012,12,15,10,22,19.30
2012,12,15,10,23,17.70
2012,12,15,10,24,20.90
2012,12,15,10,25,20.90
2012,12,15,10,26,24.20
2012,12,15,10,27,19.30
2012,12,15,10,28,20.90
2012,12,15,10,29,24.20
2012,12,15,10,30,22.50
2012,12,15,10,31,20.90
2012,12,15,10,32,19.30
2012,12,15,10,33,22.50
2012,12,15,10,34,17.70
2012,12,15,10,35,16.10
2012,12,15,10,36,20.90
2012,12,15,10,37,29.00
2012,12,15,10,38,17.70
2012,12,15,10,39,25.70
2012,12,15,10,40,20.90
2012,12,15,10,41,20.90
2012,12,15,10,42,17.70
2012,12,15,10,43,14.50
2012,12,15,10,44,19.30
2012,12,15,10,45,12.90
2012,12,15,10,46,20.90
2012,12,15,10,47,17.70
2012,12,15,10,48,16.10
2012,12,15,10,49,20.90
2012,12,15,10,50,20.90
2012,12,15,10,51,20.90
2012,12,15,10,52,17.70
2012,12,15,10,53,19.30
2012,12,15,10,54,16.10
2012,12,15,10,55,16.10
2012,12,15,10,56,17.70
2012,12,15,10,57,19.30
2012,12,15,10,58,17.70
2012,12,15,10,59,19.30
2012,12,15,11,00,20.90
2012,12,15,11,01,19.30
2012,12,15,11,02,16.10
2012,12,15,11,03,19.30
2012,12,15,11,04,20.90
2012,12,15,11,05,17.70
2012,12,15,11,06,16.10
2012,12,15,11,07,14.50
2012,12,15,11,08,16.10
2012,12,15,11,09,20.90
2012,12,15,11,10,19.30
2012,12,15,11,11,20.90
2012,12,15,11,12,16.10
2012,12,15,11,13,20.90
2012,12,15,11,14,19.30
2012,12,15,11,15,16.10
2012,12,15,11,16,22.50
2012,12,15,11,17,17.70
2012,12,15,11,18,19.30
2012,12,15,11,19,20.90
2012,12,15,11,20,20.90
2012,12,15,11,21,16.10
2012,12,15,11,22,14.50
2012,12,15,11,23,16.10
2012,12,15,11,24,16.10
2012,12,15,11,25,16.10
2012,12,15,11,26,17.70
2012,12,15,11,27,17.70
2012,12,15,11,28,20.90
2012,12,15,11,29,19.30
2012,12,15,11,30,20.90
2012,12,15,11,31,17.70
2012,12,15,11,32,16.10
2012,12,15,11,33,19.30
2012,12,15,11,34,17.70
2012,12,15,11,35,19.30
2012,12,15,11,36,25.70
2012,12,15,11,37,16.10
2012,12,15,11,38,17.70
2012,12,15,11,39,17.70
2012,12,15,11,40,16.10
2012,12,15,11,41,22.50
2012,12,15,11,42,19.30
2012,12,15,11,43,20.90
2012,12,15,11,44,20.90
2012,12,15,11,45,17.70
2012,12,15,11,46,17.70
2012,12,15,11,47,16.10
2012,12,15,11,48,14.50
2012,12,15,11,49,19.30
2012,12,15,11,50,19.30
2012,12,15,11,51,20.90
2012,12,15,11,52,16.10
2012,12,15,11,53,19.30
2012,12,15,11,54,17.70
2012,12,15,11,55,17.70
2012,12,15,11,56,17.70
2012,12,15,11,57,16.10
2012,12,15,11,58,14.50
2012,12,15,11,59,19.30
2012,12,15,12,00,16.10
2012,12,15,12,01,9.60
2012,12,15,12,02,22.50
2012,12,15,12,03,22.50
2012,12,15,12,04,19.30
2012,12,15,12,05,16.10
2012,12,15,12,06,19.30
2012,12,15,12,07,22.50
2012,12,15,12,08,20.90
2012,12,15,12,09,20.90
2012,12,15,12,10,19.30
2012,12,15,12,11,17.70
2012,12,15,12,12,16.10
2012,12,15,12,13,14.50
2012,12,15,12,14,19.30
2012,12,15,12,15,19.30
2012,12,15,12,16,17.70
2012,12,15,12,17,20.90
2012,12,15,12,18,19.30
2012,12,15,12,19,20.90
2012,12,15,12,20,17.70
2012,12,15,12,21,14.50
2012,12,15,12,22,20.90
2012,12,15,12,23,17.70
2012,12,15,12,24,12.90
2012,12,15,12,25,12.90
2012,12,15,12,26,14.50
2012,12,15,12,27,17.70
2012,12,15,12,28,19.30
2012,12,15,12,29,20.90
2012,12,15,12,30,12.90
2012,12,15,12,31,12.90
2012,12,15,12,32,19.30
2012,12,15,12,33,17.70
2012,12,15,12,34,16.10
2012,12,15,12,35,20.90
2012,12,15,12,36,19.30
2012,12,15,12,37,19.30
2012,12,15,12,38,17.70
2012,12,15,12,39,16.10
2012,12,15,12,40,9.60
2012,12,15,12,41,14.50
2012,12,15,12,42,16.10
2012,12,15,12,43,16.10
2012,12,15,12,44,16.10
2012,12,15,12,45,17.70
2012,12,15,12,46,16.10
2012,12,15,12,47,17.70
2012,12,15,12,48,12.90
2012,12,15,12,49,17.70
2012,12,15,12,50,17.70
2012,12,15,12,51,14.50
2012,12,15,12,52,17.70
2012,12,15,12,53,17.70
2012,12,15,12,54,19.30
2012,12,15,12,55,24.20
2012,12,15,12,56,16.10
2012,12,15,12,57,19.30
2012,12,15,12,58,12.90
2012,12,15,12,59,19.30
2012,12,15,13,00,16.10
2012,12,15,13,01,16.10
2012,12,15,13,02,14.50
2012,12,15,13,03,16.10
2012,12,15,13,04,12.90
2012,12,15,13,05,16.10
2012,12,15,13,06,20.90
2012,12,15,13,07,19.30
2012,12,15,13,08,20.90
2012,12,15,13,09,16.10
2012,12,15,13,10,17.70
2012,12,15,13,11,16.10
2012,12,15,13,12,19.30
2012,12,15,13,13,17.70
2012,12,15,13,14,19.30
2012,12,15,13,15,16.10
2012,12,15,13,16,20.90
2012,12,15,13,17,16.10
2012,12,15,13,18,17.70
2012,12,15,13,19,14.50
2012,12,15,13,20,16.10
2012,12,15,13,21,22.50
2012,12,15,13,22,17.70
2012,12,15,13,23,17.70
2012,12,15,13,24,19.30
2012,12,15,13,25,12.90
2012,12,15,13,26,16.10
2012,12,15,13,27,16.10
2012,12,15,13,28,19.30
2012,12,15,13,29,12.90
2012,12,15,13,30,14.50
2012,12,15,13,31,22.50
2012,12,15,13,32,24.20
2012,12,15,13,33,20.90
2012,12,15,13,34,19.30
2012,12,15,13,35,14.50
2012,12,15,13,36,11.30
2012,12,15,13,37,17.70
2012,12,15,13,38,22.50
2012,12,15,13,39,16.10
2012,12,15,13,40,16.10
2012,12,15,13,41,19.30
2012,12,15,13,42,19.30
2012,12,15,13,43,22.50
2012,12,15,13,44,20.90
2012,12,15,13,45,14.50
2012,12,15,13,46,16.10
2012,12,15,13,47,14.50
2012,12,15,13,48,17.70
2012,12,15,13,49,19.30
2012,12,15,13,50,19.30
2012,12,15,13,51,19.30
2012,12,15,13,52,17.70
2012,12,15,13,53,19.30
2012,12,15,13,54,12.90
2012,12,15,13,55,11.30
2012,12,15,13,56,16.10
2012,12,15,13,57,19.30
2012,12,15,13,58,20.90
2012,12,15,13,59,19.30
2012,12,15,14,00,17.70
2012,12,15,14,01,17.70
2012,12,15,14,02,17.70
2012,12,15,14,03,16.10
2012,12,15,14,04,19.30
2012,12,15,14,05,16.10
2012,12,15,14,06,17.70
2012,12,15,14,07,16.10
2012,12,15,14,08,16.10
2012,12,15,14,09,16.10
2012,12,15,14,10,16.10
2012,12,15,14,11,16.10
2012,12,15,14,12,17.70
2012,12,15,14,13,17.70
2012,12,15,14,14,16.10
2012,12,15,14,15,17.70
2012,12,15,14,16,14.50
2012,12,15,14,17,19.30
2012,12,15,14,18,20.90
2012,12,15,14,19,12.90
2012,12,15,14,20,12.90
2012,12,15,14,21,22.50
2012,12,15,14,22,17.70
2012,12,15,14,23,17.70
2012,12,15,14,24,14.50
2012,12,15,14,25,19.30
2012,12,15,14,26,17.70
2012,12,15,14,27,17.70
2012,12,15,14,28,16.10
2012,12,15,14,29,12.90
2012,12,15,14,30,16.10
2012,12,15,14,31,16.10
2012,12,15,14,32,14.50
2012,12,15,14,33,14.50
2012,12,15,14,34,19.30
2012,12,15,14,35,12.90
2012,12,15,14,36,11.30
2012,12,15,14,37,14.50
2012,12,15,14,38,12.90
2012,12,15,14,39,12.90
2012,12,15,14,40,14.50
2012,12,15,14,41,16.10
2012,12,15,14,42,14.50
2012,12,15,14,43,17.70
2012,12,15,14,44,17.70
2012,12,15,14,45,17.70
2012,12,15,14,46,14.50
2012,12,15,14,47,16.10
2012,12,15,14,48,12.90
2012,12,15,14,49,11.30
2012,12,15,14,50,12.90
2012,12,15,14,51,14.50
2012,12,15,14,52,19.30
2012,12,15,14,53,16.10
2012,12,15,14,54,14.50
2012,12,15,14,55,12.90
2012,12,15,14,56,14.50
2012,12,15,14,57,12.90
2012,12,15,14,58,12.90
2012,12,15,14,59,16.10
2012,12,15,15,00,17.70
2012,12,15,15,01,17.70
2012,12,15,15,02,17.70
2012,12,15,15,03,16.10
2012,12,15,15,04,17.70
2012,12,15,15,05,17.70
2012,12,15,15,06,14.50
2012,12,15,15,07,12.90
2012,12,15,15,08,14.50
2012,12,15,15,09,19.30
2012,12,15,15,10,17.70
2012,12,15,15,11,16.10
2012,12,15,15,12,12.90
2012,12,15,15,13,11.30
2012,12,15,15,14,9.60
2012,12,15,15,15,11.30
2012,12,15,15,16,16.10
2012,12,15,15,17,12.90
2012,12,15,15,18,9.60
2012,12,15,15,19,14.50
2012,12,15,15,20,16.10
2012,12,15,15,21,20.90
2012,12,15,15,22,14.50
2012,12,15,15,23,16.10
2012,12,15,15,24,17.70
2012,12,15,15,25,14.50
2012,12,15,15,26,12.90
2012,12,15,15,27,19.30
2012,12,15,15,28,17.70
2012,12,15,15,29,16.10
2012,12,15,15,30,16.10
2012,12,15,15,31,16.10
2012,12,15,15,32,16.10
2012,12,15,15,33,14.50
2012,12,15,15,34,16.10
2012,12,15,15,35,11.30
2012,12,15,15,36,17.70
2012,12,15,15,37,17.70
2012,12,15,15,38,9.60
2012,12,15,15,39,12.90
2012,12,15,15,40,12.90
2012,12,15,15,41,14.50
2012,12,15,15,42,12.90
2012,12,15,15,43,16.10
2012,12,15,15,44,12.90
2012,12,15,15,45,11.30
2012,12,15,15,46,11.30
2012,12,15,15,47,11.30
2012,12,15,15,48,11.30
2012,12,15,15,49,17.70
2012,12,15,15,50,14.50
2012,12,15,15,51,11.30
2012,12,15,15,52,11.30
2012,12,15,15,53,12.90
2012,12,15,15,54,11.30
2012,12,15,15,55,17.70
2012,12,15,15,56,16.10
2012,12,15,15,57,11.30
2012,12,15,15,58,17.70
2012,12,15,15,59,14.50
2012,12,15,16,00,12.90
2012,12,15,16,01,9.60
2012,12,15,16,02,11.30
2012,12,15,16,03,11.30
2012,12,15,16,04,12.90
2012,12,15,16,05,17.70
2012,12,15,16,06,16.10
2012,12,15,16,07,16.10
2012,12,15,16,08,16.10
2012,12,15,16,09,9.60
2012,12,15,16,10,11.30
2012,12,15,16,11,12.90
2012,12,15,16,12,11.30
2012,12,15,16,13,11.30
2012,12,15,16,14,17.70
2012,12,15,16,15,14.50
2012,12,15,16,16,17.70
2012,12,15,16,17,14.50
2012,12,15,16,18,14.50
2012,12,15,16,19,14.50
2012,12,15,16,20,9.60
2012,12,15,16,21,14.50
2012,12,15,16,22,11.30
2012,12,15,16,23,16.10
2012,12,15,16,24,14.50
2012,12,15,16,25,16.10
2012,12,15,16,26,11.30
2012,12,15,16,27,12.90
2012,12,15,16,28,12.90
2012,12,15,16,29,11.30
2012,12,15,16,30,14.50
2012,12,15,16,31,12.90
2012,12,15,16,32,22.50
2012,12,15,16,33,12.90
2012,12,15,16,34,14.50
2012,12,15,16,35,16.10
2012,12,15,16,36,20.90
2012,12,15,16,37,12.90
2012,12,15,16,38,16.10
2012,12,15,16,39,14.50
2012,12,15,16,40,14.50
2012,12,15,16,41,17.70
2012,12,15,16,42,12.90
2012,12,15,16,43,16.10
2012,12,15,16,44,14.50
2012,12,15,16,45,16.10
2012,12,15,16,46,16.10
2012,12,15,16,47,17.70
2012,12,15,16,48,16.10
2012,12,15,16,49,12.90
2012,12,15,16,50,16.10
2012,12,15,16,51,11.30
2012,12,15,16,52,14.50
2012,12,15,16,53,14.50
2012,12,15,16,54,17.70
2012,12,15,16,55,16.10
2012,12,15,16,56,14.50
2012,12,15,16,57,19.30
2012,12,15,16,58,17.70
2012,12,15,16,59,20.90
2012,12,15,17,00,12.90
2012,12,15,17,01,16.10
2012,12,15,17,02,16.10
2012,12,15,17,03,16.10
2012,12,15,17,04,12.90
2012,12,15,17,05,12.90
2012,12,15,17,06,14.50
2012,12,15,17,07,12.90
2012,12,15,17,08,17.70
2012,12,15,17,09,19.30
2012,12,15,17,10,11.30
2012,12,15,17,11,17.70
2012,12,15,17,12,12.90
2012,12,15,17,13,11.30
2012,12,15,17,14,17.70
2012,12,15,17,15,14.50
2012,12,15,17,16,12.90
2012,12,15,17,17,12.90
2012,12,15,17,18,14.50
2012,12,15,17,19,17.70
2012,12,15,17,20,14.50
2012,12,15,17,21,16.10
2012,12,15,17,22,14.50
2012,12,15,17,23,14.50
2012,12,15,17,24,19.30
2012,12,15,17,25,14.50
2012,12,15,17,26,12.90
2012,12,15,17,27,14.50
2012,12,15,17,28,14.50
2012,12,15,17,29,12.90